Regional Weather Roundup
Issued by NWS Bismarck, ND

Home | Current Version | Previous Version | Text Only | Print | Product List | Glossary On
Versions: 1 2 3 4 5 6 7 8 9 10 11 12 13 14 15 16 17 18 19 20 21 22 23 24 25 26 27 28 29 30 31 32 33 34 35 36 37 38 39 40 41 42 43 44 45 46 47 48 49 50
000
ASUS43 KBIS 061010
RWRBIS

NWR BROADCAST TEXT
NATIONAL WEATHER SERVICE BISMARCK ND
500 AM CDT MON JUL 06 2015

NOTE: "FAIR" INDICATES FEW OR NO CLOUDS BELOW 12,000 FEET WITH NO
SIGNIFICANT WEATHER AND/OR OBSTRUCTIONS TO VISIBILITY.


CITY           SKY/WX    TMP DP  RH WIND       PRES   REMARKS
WILLISTON      CLOUDY    59  50  72 N6        30.14R
MINOT          MOCLDY    53  50  89 NW6       30.08R FOG
MINOT AFB      MOCLDY    54  54  99 N6        30.08R
BISMARCK       CLOUDY    61  54  77 N7        30.07R
DICKINSON      MOCLDY    55  51  86 NW7       30.11R
GARRISON         N/A     57  53  86 N5        30.08R
HETTINGER ARPT CLOUDY    57  52  83 NW5       30.14R
JAMESTOWN      CLOUDY    61  57  87 N7        30.01R FOG
BEACH          CLOUDY    55  55 100 NW7       30.17R
CROSBY         PTSUNNY   54  54 100 NW5       30.14R FOG
HARVEY         FAIR      55  55 100 N9        30.07R FOG
HAZEN          FAIR      57  54  88 N5        30.09R
LINTON         PTSUNNY   59  59 100 N3        30.05R FOG
MANDAN         FAIR      59  54  82 N9        30.09R
OAKES            N/A     64  64 100 N9        29.97S FOG
STANLEY        FAIR      52  52 100 NW5       30.13R
$$

CITY           SKY/WX    TMP DP  RH WIND       PRES   REMARKS
GRAND FORKS    CLOUDY    58  52  80 N8        29.99R
GRAND FORKS AF MOCLDY    58  52  79 N12       30.00R
DEVILS LAKE    CLOUDY    57  50  77 N8        30.04R
FARGO          CLOUDY    64  59  83 N14G24    29.93R HAZE
CANDO          CLOUDY    54  52  94 N8        30.08R
CAVALIER       FAIR      54  50  87 N9        30.04S
GRAFTON        FAIR      55  52  88 N10       30.02S
GWINNER          N/A     64  61  88 N8        29.97R
LANGDON        PTSUNNY   54  52  94 NE8       30.06R
ROLLA          CLOUDY    50  50 100 N7        30.09R
WALHALLA       FAIR      55  55 100 MISG      30.06R
$$

CITY           SKY/WX    TMP DP  RH WIND       PRES   REMARKS
ABERDEEN       LGT RAIN  65  60  84 NE8       29.96S
MOBRIDGE       CLOUDY    65  63  93 N8        30.01R FOG
BUFFALO          N/A     58  52  80 NW10      30.10R
RAPID CITY     CLOUDY    60  56  86 NW13      30.14R FOG
GLASGOW        CLOUDY    57  53  86 NW5       30.18S
SIDNEY         CLOUDY    61  52  72 W9        30.15R
WOLF POINT     CLOUDY    57  54  89 W6        30.17S
GLENDIVE       CLOUDY    57  54  88 NW10      30.17R
MILES CITY     CLOUDY    57  54  89 NW9       30.20R
BAKER          CLOUDY    58  55  90 NW9       30.18R
$$

CITY           SKY/WX    TMP DP  RH WIND       PRES   REMARKS
BILLINGS       CLOUDY    55  47  74 NE3       30.26R
GREAT FALLS    MOCLDY    47  46  97 SW3       30.26S
REGINA         PTCLDY    48  46  93 N5        30.17R
ESTEVAN        CLOUDY    54  52  94 N6        30.13R SMOKE
$$



USA.gov is the U.S. government's official web portal to all federal, state and local government web resources and services.